| time (UTC) | temp F | wind direction | speed knots | gust knots | rain 1hr in | rain 24hr in | rain mn in | humidity % | barometer mb |
| 20260905170100 | 57 | 136 | 0.9 | 4.3 | 0.00 | 0.01 | 0.00 | 74 | 1017.0 |
| 20260905164606 | 57 | 5 | 0.9 | 2.6 | 0.00 | 0.01 | 0.00 | 76 | 1017.0 |
| 20260905163106 | 55 | 48 | 0.0 | 2.6 | 0.00 | 0.01 | 0.00 | 80 | 1017.2 |
| 20260905161601 | 54 | 0 | 0.0 | 2.6 | 0.00 | 0.01 | 0.00 | 83 | 1017.3 |
| 20260905160123 | 53 | 148 | 0.9 | 3.5 | 0.00 | 0.01 | 0.00 | 86 | 1017.3 |
| 20260905154604 | 52 | 112 | 0.0 | 2.6 | 0.00 | 0.01 | 0.00 | 87 | 1017.4 |
| 20260905153112 | 51 | 44 | 0.0 | 1.7 | 0.00 | 0.01 | 0.00 | 88 | 1017.3 |
| 20260905151559 | 51 | 0 | 0.0 | 0.9 | 0.00 | 0.01 | 0.00 | 88 | 1017.4 |
| 20260905144606 | 49 | 0 | 0.0 | 0.9 | 0.00 | 0.01 | 0.00 | 92 | 1017.5 |
| 20260905143059 | 48 | 0 | 0.0 | 0.0 | 0.00 | 0.01 | 0.00 | 93 | 1017.4 |
| 20260905141604 | 47 | 0 | 0.0 | 0.0 | 0.00 | 0.01 | 0.00 | 94 | 1017.2 |
| 20260905140109 | 47 | 355 | 0.9 | 1.7 | 0.00 | 0.01 | 0.00 | 94 | 1017.3 |
| 20260905134558 | 47 | 0 | 0.0 | 0.0 | 0.00 | 0.02 | 0.00 | 93 | 1017.0 |
| 20260905133108 | 47 | 0 | 0.0 | 0.0 | 0.00 | 0.02 | 0.00 | 93 | 1017.1 |
| 20260905131611 | 47 | 0 | 0.0 | 0.0 | 0.00 | 0.02 | 0.00 | 92 | 1016.9 |
| 20260905130115 | 48 | 0 | 0.0 | 0.0 | 0.00 | 0.02 | 0.00 | 93 | 1016.8 |
| 20260905124600 | 48 | 0 | 0.0 | 0.0 | 0.00 | 0.02 | 0.00 | 93 | 1016.8 |
| 20260905123107 | 48 | 0 | 0.0 | 0.0 | 0.00 | 0.02 | 0.00 | 92 | 1016.8 |
| 20260905121601 | 49 | 0 | 0.0 | 0.0 | 0.00 | 0.02 | 0.00 | 92 | 1017.0 |
| 20260905120112 | 49 | 0 | 0.0 | 0.0 | 0.00 | 0.02 | 0.00 | 92 | 1017.0 |
| 20260905114555 | 49 | 0 | 0.0 | 0.0 | 0.00 | 0.02 | 0.00 | 92 | 1017.1 |
| 20260905113058 | 49 | 0 | 0.0 | 1.7 | 0.00 | 0.02 | 0.00 | 92 | 1017.0 |
| 20260905111611 | 49 | 0 | 0.0 | 1.7 | 0.00 | 0.02 | 0.00 | 92 | 1017.0 |
| 20260905110101 | 49 | 0 | 0.0 | 0.0 | 0.00 | 0.02 | 0.00 | 93 | 1017.0 |
| 20260905104600 | 49 | 0 | 0.0 | 1.7 | 0.00 | 0.02 | 0.00 | 92 | 1017.0 |
| 20260905103102 | 49 | 0 | 0.0 | 0.0 | 0.00 | 0.02 | 0.00 | 92 | 1017.2 |
| 20260905101602 | 49 | 0 | 0.0 | 0.0 | 0.00 | 0.02 | 0.00 | 91 | 1017.0 |
| 20260905094603 | 50 | 0 | 0.0 | 0.0 | 0.00 | 0.02 | 0.00 | 90 | 1016.8 |
| 20260905093058 | 50 | 0 | 0.0 | 1.7 | 0.00 | 0.02 | 0.00 | 90 | 1016.8 |
| 20260905091609 | 50 | 0 | 0.0 | 0.9 | 0.00 | 0.02 | 0.00 | 91 | 1017.0 |
| 20260905090100 | 51 | 0 | 0.0 | 1.7 | 0.00 | 0.02 | 0.00 | 89 | 1016.9 |
| 20260905084617 | 51 | 0 | 0.0 | 0.9 | 0.00 | 0.02 | 0.00 | 89 | 1016.9 |
| 20260905083055 | 51 | 0 | 0.9 | 2.6 | 0.00 | 0.02 | 0.00 | 88 | 1016.8 |
| 20260905081604 | 52 | 0 | 0.0 | 0.9 | 0.00 | 0.02 | 0.00 | 87 | 1016.7 |
| 20260905080105 | 52 | 0 | 0.0 | 2.6 | 0.00 | 0.02 | 0.00 | 85 | 1016.7 |
| 20260905074605 | 53 | 0 | 0.0 | 0.0 | 0.00 | 0.02 | 0.00 | 84 | 1016.7 |
| 20260905073106 | 53 | 0 | 0.0 | 0.0 | 0.00 | 0.02 | 0.00 | 84 | 1016.7 |
| 20260905071554 | 53 | 0 | 0.0 | 0.0 | 0.00 | 0.02 | 0.00 | 83 | 1016.6 |
| 20260905070103 | 54 | 166 | 0.9 | 3.5 | 0.00 | 0.02 | 0.00 | 83 | 1016.5 |
| 20260905064601 | 54 | 139 | 0.9 | 2.6 | 0.00 | 0.02 | 0.02 | 82 | 1016.3 |
| 20260905063100 | 54 | 0 | 0.0 | 0.9 | 0.00 | 0.02 | 0.02 | 83 | 1016.5 |
| 20260905061601 | 54 | 103 | 0.0 | 2.6 | 0.00 | 0.02 | 0.02 | 82 | 1016.5 |
| 20260905060101 | 54 | 0 | 0.0 | 2.6 | 0.00 | 0.02 | 0.02 | 83 | 1016.2 |
| 20260905054600 | 54 | 0 | 0.9 | 1.7 | 0.00 | 0.02 | 0.02 | 82 | 1016.3 |
| 20260905053141 | 54 | 0 | 0.0 | 2.6 | 0.00 | 0.02 | 0.02 | 82 | 1016.4 |
| 20260905051559 | 55 | 0 | 0.0 | 0.0 | 0.00 | 0.02 | 0.02 | 80 | 1016.3 |
| 20260905044605 | 56 | 0 | 0.0 | 1.7 | 0.00 | 0.02 | 0.02 | 77 | 1016.3 |
| 20260905043106 | 56 | 0 | 0.0 | 2.6 | 0.00 | 0.02 | 0.02 | 76 | 1016.1 |
| 20260905041608 | 57 | 179 | 0.9 | 5.2 | 0.00 | 0.02 | 0.02 | 74 | 1016.0 |
| 20260905040104 | 58 | 159 | 0.9 | 2.6 | 0.00 | 0.02 | 0.02 | 71 | 1015.9 |
| 20260905034556 | 59 | 0 | 0.0 | 0.0 | 0.00 | 0.02 | 0.02 | 68 | 1015.8 |
| 20260905033103 | 60 | 0 | 0.0 | 2.6 | 0.00 | 0.02 | 0.02 | 64 | 1015.5 |
| 20260905031557 | 60 | 0 | 0.9 | 2.6 | 0.00 | 0.02 | 0.02 | 65 | 1015.4 |
| 20260905024621 | 61 | 339 | 0.9 | 2.6 | 0.00 | 0.02 | 0.02 | 63 | 1015.1 |
| 20260905023110 | 61 | 5 | 1.7 | 6.1 | 0.00 | 0.02 | 0.02 | 62 | 1015.0 |
| 20260905021600 | 62 | 5 | 4.3 | 7.8 | 0.00 | 0.02 | 0.02 | 60 | 1014.9 |
| 20260905020110 | 62 | 360 | 5.2 | 9.6 | 0.00 | 0.02 | 0.02 | 59 | 1014.9 |
| 20260905014615 | 62 | 46 | 1.7 | 5.2 | 0.00 | 0.02 | 0.02 | 60 | 1014.7 |
| 20260905013104 | 62 | 57 | 1.7 | 7.8 | 0.00 | 0.02 | 0.02 | 59 | 1014.6 |
| 20260905011619 | 62 | 49 | 3.5 | 9.6 | 0.00 | 0.02 | 0.02 | 61 | 1014.7 |
| 20260905010101 | 62 | 61 | 7.0 | 10.4 | 0.00 | 0.02 | 0.02 | 60 | 1014.5 |
| 20260905004600 | 62 | 11 | 4.3 | 11.3 | 0.01 | 0.02 | 0.02 | 62 | 1014.4 |
| 20260905003103 | 62 | 14 | 6.1 | 10.4 | 0.01 | 0.02 | 0.02 | 62 | 1014.3 |
| 20260905001602 | 62 | 12 | 7.0 | 13.9 | 0.01 | 0.02 | 0.02 | 63 | 1014.3 |
| 20260905000105 | 61 | 12 | 6.1 | 13.0 | 0.01 | 0.02 | 0.02 | 66 | 1014.1 |
| 20260904234601 | 63 | 342 | 3.5 | 7.8 | 0.00 | 0.01 | 0.01 | 64 | 1014.0 |
| 20260904233057 | 64 | 11 | 4.3 | 11.3 | 0.00 | 0.01 | 0.01 | 56 | 1013.9 |
| 20260904231600 | 66 | 56 | 3.5 | 8.7 | 0.00 | 0.01 | 0.01 | 50 | 1013.6 |
| 20260904230108 | 67 | 15 | 4.3 | 8.7 | 0.00 | 0.01 | 0.01 | 48 | 1013.4 |
| 20260904224608 | 66 | 16 | 1.7 | 7.0 | 0.00 | 0.01 | 0.01 | 49 | 1013.5 |
| 20260904223102 | 65 | 355 | 3.5 | 7.8 | 0.00 | 0.01 | 0.01 | 51 | 1013.5 |
| 20260904221601 | 65 | 5 | 3.5 | 7.0 | 0.00 | 0.01 | 0.01 | 52 | 1013.7 |
| 20260904220110 | 65 | 13 | 2.6 | 6.1 | 0.00 | 0.01 | 0.01 | 52 | 1013.9 |
| 20260904214605 | 65 | 78 | 1.7 | 7.8 | 0.00 | 0.01 | 0.01 | 52 | 1013.8 |
| 20260904213106 | 64 | 69 | 1.7 | 7.0 | 0.00 | 0.01 | 0.01 | 52 | 1013.7 |
| 20260904211604 | 63 | 57 | 2.6 | 7.8 | 0.00 | 0.01 | 0.01 | 55 | 1013.7 |
| 20260904210105 | 63 | 57 | 2.6 | 7.0 | 0.00 | 0.01 | 0.01 | 54 | 1013.8 |
| 20260904204602 | 65 | 30 | 0.9 | 4.3 | 0.00 | 0.01 | 0.01 | 51 | 1013.7 |
| 20260904203104 | 65 | 43 | 1.7 | 6.1 | 0.00 | 0.01 | 0.01 | 50 | 1013.9 |
| 20260904201636 | 63 | 123 | 3.5 | 6.1 | 0.00 | 0.01 | 0.01 | 56 | 1013.7 |
| 20260904200114 | 63 | 313 | 0.0 | 3.5 | 0.00 | 0.01 | 0.01 | 57 | 1013.9 |
| 20260904194607 | 63 | 0 | 0.9 | 4.3 | 0.00 | 0.01 | 0.01 | 58 | 1014.0 |
| 20260904193106 | 61 | 0 | 0.0 | 3.5 | 0.00 | 0.01 | 0.01 | 63 | 1014.0 |
| 20260904191601 | 61 | 0 | 0.9 | 4.3 | 0.00 | 0.01 | 0.01 | 66 | 1014.0 |
| 20260904190057 | 60 | 24 | 0.9 | 3.5 | 0.00 | 0.01 | 0.01 | 67 | 1014.1 |
| 20260904184557 | 59 | 90 | 0.9 | 4.3 | 0.00 | 0.01 | 0.01 | 69 | 1014.2 |
| 20260904183100 | 58 | 82 | 0.9 | 7.0 | 0.00 | 0.01 | 0.01 | 71 | 1014.2 |
| 20260904181559 | 58 | 53 | 1.7 | 7.0 | 0.00 | 0.01 | 0.01 | 69 | 1013.9 |
| 20260904180058 | 57 | 64 | 3.5 | 6.1 | 0.00 | 0.01 | 0.01 | 72 | 1014.1 |
| 20260904174557 | 56 | 73 | 1.7 | 5.2 | 0.00 | 0.01 | 0.01 | 75 | 1014.0 |
| 20260904173127 | 55 | 49 | 1.7 | 3.5 | 0.00 | 0.01 | 0.01 | 82 | 1014.0 |